Date/Time (UTC),ProbHail,ProbWind,ProbTor,MESH,VIL Density,Flash Rate,Max Flash Density,LJA sigma-level,Max 0-2km AzShear,LLAZ 98th%,MLAZ 98th%,MUCAPE,MLCAPE,CAPE -10C to -30C,MLCIN,SRH 0-1km AGL,EBShear,MeanWind 0-1km AGL,Norm. Sat. Growth Rate,PWAT,WBZ,AvgBeamHgt,size
2019/05/26 20:18,5,12,7,0.00,0.40,2,0.13,0.0,8,7,7,3575,2813,973,17,118,63.6,26.1,0,1.1,9.3,2640.0,70
2019/05/26 20:20,47,40,7,0.57,1.10,8,0.30,0.0,8,7,5,3571,2814,973,18,118,63.9,26.0,0,1.1,9.2,2640.0,76
2019/05/26 20:22,72,60,14,0.90,1.50,8,0.39,0.0,9,8,4,3562,2814,972,18,118,63.9,26.0,0,1.1,9.2,2640.0,61
2019/05/26 20:24,82,84,15,0.90,2.20,25,0.39,0.0,9,8,5,3562,2807,974,17,118,64.2,26.1,0,1.1,8.9,2580.0,200
2019/05/26 20:26,97,92,15,1.40,2.70,45,0.53,0.0,9,8,5,3567,2808,974,17,117,64.4,26.1,0,1.1,8.7,2540.0,236
2019/05/26 20:28,98,92,6,1.64,2.90,45,0.53,0.0,7,6,5,3576,2813,974,17,117,64.5,26.1,0,1.1,8.7,2540.0,206
2019/05/26 20:30,98,92,6,1.64,2.90,45,0.53,0.5,7,6,6,3568,2804,975,16,116,64.6,26.1,0,1.1,8.6,2500.0,249
2019/05/26 20:32,98,92,6,1.64,2.90,45,0.53,0.0,7,6,5,3565,2799,974,16,114,64.8,26.2,0,1.1,8.4,2480.0,251
2019/05/26 20:34,97,89,6,1.54,3.00,40,0.60,0.0,7,5,4,3566,2799,974,16,114,64.8,26.2,0,1.1,8.4,2480.0,248
2019/05/26 20:36,97,89,5,1.54,3.00,43,0.65,1.0,8,5,4,3554,2789,972,15,112,64.9,26.4,0,1.1,8.3,2430.0,294
2019/05/26 20:38,97,87,5,1.54,3.00,43,0.65,0.0,8,5,4,3547,2782,971,14,110,64.9,26.5,0,1.1,8.3,2390.0,278
2019/05/26 20:40,97,87,5,1.42,2.70,48,0.67,1.9,8,5,3,3548,2782,969,14,110,65.0,26.6,0,1.1,8.3,2380.0,265
2019/05/26 20:42,97,89,5,1.33,2.90,48,0.67,0.0,9,5,5,3541,2772,966,13,108,65.0,26.7,0,1.1,8.3,2330.0,309
2019/05/26 20:44,97,95,20,1.33,2.90,48,0.67,0.0,9,5,10,3540,2769,963,13,107,65.0,26.8,0,1.1,8.3,2310.0,282
2019/05/26 20:46,95,95,22,1.15,2.90,52,0.77,1.5,9,5,5,3541,2766,963,13,107,65.0,26.8,0,1.1,8.3,2300.0,294
2019/05/26 20:48,95,89,11,1.15,2.80,52,0.77,0.0,5,4,5,3548,2748,951,10,104,64.9,27.0,0,1.1,8.3,2190.0,332
2019/05/26 20:50,94,82,6,1.06,2.50,52,0.77,0.0,10,5,5,3547,2742,950,9,104,64.8,27.0,0,1.1,8.2,2160.0,322
2019/05/26 20:52,91,83,6,0.93,2.50,52,0.77,0.0,10,5,5,3546,2741,950,9,104,64.8,27.0,0,1.1,8.2,2160.0,301
2019/05/26 20:54,86,81,6,0.93,2.40,27,0.77,0.5,10,5,5,3543,2741,949,9,104,64.8,27.1,0,1.1,8.2,2140.0,254
2019/05/26 20:56,94,81,3,1.27,2.40,27,0.77,0.0,5,4,5,3542,2738,949,9,104,64.7,27.1,0,1.1,8.2,2120.0,216
2019/05/26 20:58,94,82,5,1.27,2.70,27,0.77,0.7,5,4,5,3082,2519,907,5,190,64.8,26.3,0,1.1,8.5,2120.0,200
2019/05/26 21:00,94,82,5,1.27,2.70,27,0.77,0.0,4,4,5,3031,2493,907,4,182,64.5,26.7,0,1.1,8.3,1990.0,392
2019/05/26 21:02,92,82,5,1.16,2.70,29,0.77,1.7,4,4,4,3011,2482,907,4,179,64.4,26.8,0,1.1,8.3,1950.0,330
2019/05/26 21:04,92,82,5,1.17,2.70,29,0.77,0.0,4,4,4,3013,2483,907,4,180,64.4,26.8,0,1.1,8.3,1950.0,338
2019/05/26 21:06,92,81,5,1.17,2.50,29,0.77,0.0,5,4,4,3033,2494,907,4,184,64.4,26.6,0,1.2,8.3,2000.0,268
2019/05/26 21:08,92,82,4,1.17,2.60,29,0.77,0.5,5,4,4,3081,2526,902,4,183,63.2,26.8,0,1.2,8.9,1980.0,548
2019/05/26 21:10,86,81,4,1.00,2.70,25,0.77,0.1,5,4,4,3076,2526,901,4,182,63.1,26.9,0,1.2,8.8,1970.0,580
2019/05/26 21:12,87,74,4,1.06,2.70,22,0.77,0.0,5,3,4,3073,2538,902,4,180,63.1,26.9,0,1.2,8.8,1940.0,713
2019/05/26 21:14,87,81,4,1.06,2.80,22,0.77,0.0,5,4,4,3016,2493,902,2,173,63.2,27.0,0,1.2,8.3,1850.0,210
2019/05/26 21:16,87,81,4,1.06,2.80,22,0.77,0.0,5,4,4,3015,2492,902,2,173,63.2,27.0,0,1.2,8.3,1840.0,204
2019/05/26 21:18,80,84,7,0.95,2.80,21,0.62,1.0,7,6,5,3066,2541,897,3,176,62.6,27.1,0,1.2,8.7,1870.0,720
2019/05/26 21:20,44,60,12,0.54,2.20,11,0.62,0.0,7,7,6,2973,2482,900,1,165,62.7,27.2,0,1.2,8.1,1740.0,181
2019/05/26 21:22,54,62,12,0.61,2.20,11,0.62,0.0,7,7,6,2971,2489,899,1,164,62.5,27.2,0,1.2,8.1,1720.0,191
2019/05/26 21:24,54,62,12,0.61,2.20,11,0.62,0.0,7,7,6,2974,2493,898,1,164,62.4,27.2,0,1.2,8.1,1720.0,180
2019/05/26 21:26,51,58,12,0.61,2.20,8,0.62,0.0,7,7,5,2937,2486,900,0,154,62.1,27.3,0,1.2,8.1,1590.0,132
2019/05/26 21:28,42,53,8,0.52,2.00,8,0.62,0.0,7,6,5,2992,2545,899,0,154,61.0,27.5,0,1.2,8.1,1560.0,449
2019/05/26 21:30,37,38,4,0.48,2.00,7,0.57,0.0,6,5,5,2985,2539,900,0,153,61.1,27.5,0,1.2,8.1,1560.0,455
2019/05/26 21:32,37,36,4,0.45,2.00,7,0.57,0.0,6,5,5,2959,2539,913,0,147,60.8,27.6,0,1.2,8.1,1450.0,359
2019/05/26 21:34,33,36,4,0.43,1.80,7,0.57,0.0,6,5,5,2932,2534,923,0,145,60.8,27.6,0,1.2,8.0,1400.0,309
2019/05/26 21:36,29,34,4,0.37,1.80,6,0.56,0.0,6,5,5,2924,2528,926,0,145,60.8,27.6,0,1.2,8.0,1390.0,316
2019/05/26 21:38,26,44,8,0.34,1.70,10,0.56,0.0,8,6,4,2886,2509,934,0,144,60.8,27.6,0,1.2,8.0,1350.0,278
2019/05/26 21:40,34,56,10,0.43,1.80,10,0.56,0.0,8,7,6,2862,2500,941,0,143,60.7,27.7,0,1.2,8.0,1300.0,292
2019/05/26 21:42,34,56,9,0.43,1.80,10,0.45,0.0,8,7,6,2830,2493,946,0,143,60.5,27.7,0,1.2,8.0,1260.0,289
2019/05/26 21:44,34,56,9,0.43,1.80,10,0.27,0.0,8,7,6,2828,2493,946,1,143,60.5,27.7,0,1.2,8.0,1260.0,289
2019/05/26 21:46,34,52,7,0.42,1.70,10,0.29,0.0,8,6,5,2790,2474,946,1,142,60.7,27.8,0,1.2,8.0,1180.0,310
2019/05/26 21:48,30,46,7,0.38,1.40,10,0.29,0.0,8,6,6,2798,2488,946,2,141,60.8,27.9,0,1.2,8.0,1120.0,290
2019/05/26 21:50,30,46,7,0.40,1.50,10,0.29,0.0,8,6,6,2793,2482,945,2,141,60.8,27.9,0,1.2,8.0,1110.0,281
2019/05/26 21:52,57,63,7,0.65,1.80,16,0.37,3.9,8,6,6,2814,2499,942,2,139,60.9,27.9,0,1.2,8.1,1060.0,295
2019/05/26 21:54,57,71,7,0.65,2.30,16,0.37,0.0,8,6,6,2826,2506,936,4,137,61.0,27.9,0,1.2,8.1,1020.0,277
2019/05/26 21:56,68,77,9,0.81,2.60,16,0.37,0.0,8,6,6,2655,2393,879,3,221,58.2,30.7,0,1.3,8.1,970.0,254
2019/05/26 21:58,71,81,23,0.89,2.90,16,0.37,0.0,11,9,6,2665,2397,875,3,219,58.1,30.7,0,1.3,8.1,960.0,267
2019/05/26 22:00,69,81,21,0.89,2.90,15,0.37,1.1,11,9,6,2674,2390,858,3,210,58.0,30.4,0,1.3,8.1,900.0,266
2019/05/26 22:02,69,81,21,0.89,2.90,15,0.37,0.0,11,9,4,2707,2405,852,3,206,57.9,30.4,0,1.3,8.2,860.0,251
2019/05/26 22:04,66,79,16,0.83,2.80,15,0.37,0.4,11,7,4,2725,2410,838,3,201,57.8,30.3,0,1.3,8.2,820.0,201
2019/05/26 22:06,58,70,17,0.74,2.80,15,0.37,0.0,11,7,4,2736,2419,828,3,197,57.8,30.2,0,1.3,8.2,800.0,240
2019/05/26 22:08,58,75,17,0.74,2.80,13,0.37,1.0,11,7,6,2752,2415,810,3,189,57.8,29.9,0,1.3,8.2,740.0,290
2019/05/26 22:10,86,88,8,1.10,2.60,26,0.46,3.5,6,5,7,2769,2430,801,2,185,58.0,29.7,0,1.3,8.2,700.0,267
2019/05/26 22:12,86,88,9,1.10,3.00,26,0.50,0.0,7,6,7,2766,2426,801,2,185,58.0,29.7,0,1.3,8.2,700.0,261
2019/05/26 22:14,91,92,16,1.10,3.00,43,0.75,3.2,7,6,7,2772,2424,793,2,179,58.2,29.4,0,1.3,8.2,630.0,252
2019/05/26 22:16,92,92,20,1.08,3.00,43,0.75,0.0,7,6,8,2787,2444,789,2,175,58.7,29.2,0,1.3,8.2,590.0,239
2019/05/26 22:18,96,95,27,1.41,3.30,43,0.75,0.1,9,5,10,2794,2461,788,2,173,59.0,29.1,0,1.3,8.3,570.0,250
2019/05/26 22:20,97,95,40,1.41,3.30,53,0.94,2.0,9,7,10,2796,2463,787,2,172,59.1,29.0,0,1.3,8.3,550.0,244
2019/05/26 22:22,97,95,36,1.41,3.30,53,0.94,0.0,9,7,10,2789,2459,780,2,168,59.9,28.8,0,1.3,8.3,480.0,253
2019/05/26 22:24,96,95,38,1.39,3.20,53,0.94,1.1,9,7,9,2778,2450,775,2,167,60.2,28.8,0,1.3,8.3,440.0,276
2019/05/26 22:26,97,95,38,1.38,3.50,53,0.94,0.0,9,7,10,2786,2458,774,2,166,60.3,28.8,0,1.3,8.3,440.0,285
2019/05/26 22:28,97,95,38,1.38,3.50,52,0.94,0.0,9,7,10,2777,2444,770,3,166,60.5,28.7,0,1.3,8.3,420.0,282
2019/05/26 22:30,97,95,25,1.38,3.50,52,0.94,0.0,8,5,10,2778,2440,760,3,166,60.9,28.6,0,1.3,8.3,370.0,280
2019/05/26 22:32,94,92,25,1.23,3.00,34,0.94,0.2,8,5,8,2758,2406,751,4,165,61.0,28.6,0,1.3,8.4,330.0,325
2019/05/26 22:34,96,92,16,1.38,3.00,43,0.94,1.4,5,4,8,2761,2408,751,4,165,61.0,28.6,0,1.3,8.4,330.0,329
2019/05/26 22:36,96,87,9,1.38,3.00,43,0.94,0.0,5,4,8,2747,2391,745,4,165,61.1,28.5,0,1.3,8.4,310.0,376
2019/05/26 22:38,96,87,11,1.38,3.00,43,0.94,0.0,5,4,8,2708,2343,733,7,165,61.3,28.4,0,1.3,8.4,260.0,404
2019/05/26 22:40,89,88,10,0.96,2.60,46,0.94,1.6,6,4,7,2665,2307,725,8,165,61.5,28.3,0,1.3,8.4,220.0,514
2019/05/26 22:42,83,78,10,0.76,2.40,46,0.94,0.0,6,4,7,2660,2302,725,9,165,61.5,28.3,0,1.3,8.4,220.0,514
2019/05/26 22:44,78,81,10,0.69,2.20,46,0.94,0.0,6,5,7,2637,2275,720,10,165,61.8,28.1,0,1.3,8.4,180.0,483
2019/05/26 22:46,78,84,16,0.69,2.10,46,0.94,0.1,6,5,9,2625,2260,717,11,165,62.1,28.1,0,1.3,8.5,150.0,461
2019/05/26 22:48,69,75,21,0.67,1.90,28,0.94,0.8,8,5,9,2622,2252,716,11,166,62.1,28.0,0,1.3,8.5,140.0,506
2019/05/26 22:50,82,81,27,0.79,2.20,37,0.94,0.8,8,5,10,2618,2247,715,12,166,62.3,28.0,0,1.3,8.5,120.0,448
2019/05/26 22:52,84,85,29,0.84,2.20,37,0.76,0.0,8,6,10,2620,2241,714,12,166,62.4,28.0,0,1.3,8.5,110.0,368
2019/05/26 22:54,69,85,19,0.84,2.20,37,0.76,0.0,8,6,8,2453,2172,690,23,196,45.5,30.1,0,1.2,8.5,70.0,344
2019/05/26 22:56,69,90,19,0.84,2.30,37,0.76,1.4,7,6,7,2445,2170,690,24,196,45.5,30.1,0,1.2,8.5,70.0,352
2019/05/26 22:58,62,81,11,0.77,2.30,34,0.76,0.0,7,6,7,2441,2170,690,24,195,45.5,30.1,0,1.2,8.5,60.0,327
2019/05/26 23:00,62,79,9,0.77,2.30,34,0.76,0.0,8,6,7,2413,2155,690,27,194,45.7,30.0,0,1.2,8.5,50.0,341
2019/05/26 23:02,62,81,9,0.77,2.20,34,0.76,0.0,8,6,6,2379,2136,689,31,192,46.2,29.7,0,1.2,8.5,30.0,368
2019/05/26 23:04,27,65,13,0.65,1.90,18,0.76,0.3,10,6,5,2374,2131,689,32,192,46.4,29.7,0,1.2,8.5,30.0,384
2019/05/26 23:06,21,47,11,0.57,1.50,14,0.76,0.0,10,7,5,2361,2123,689,34,191,46.7,29.6,0,1.2,8.5,30.0,373
2019/05/26 23:08,20,47,8,0.53,1.20,14,0.76,0.6,10,7,5,2365,2124,690,39,190,47.2,29.5,0,1.3,8.5,40.0,448
2019/05/26 23:10,15,47,7,0.44,1.20,14,0.76,0.0,10,7,4,2364,2120,690,42,188,47.8,29.4,0,1.3,8.5,40.0,404
2019/05/26 23:12,8,37,6,0.30,1.20,12,0.55,0.0,10,7,4,2369,2120,691,45,188,48.2,29.3,0,1.3,8.6,50.0,415
2019/05/26 23:14,7,35,3,0.22,1.20,12,0.55,0.0,9,7,5,2393,2139,699,52,188,49.1,29.2,0,1.3,8.6,80.0,423
2019/05/26 23:16,6,29,2,0.20,1.20,5,0.55,0.0,9,7,4,2412,2138,701,57,188,49.8,29.2,0,1.3,8.6,120.0,461
2019/05/26 23:18,6,16,1,0.17,1.20,2,0.55,0.0,8,4,6,2432,2147,705,59,188,50.3,29.1,0,1.3,8.6,130.0,405
2019/05/26 23:20,4,16,1,0.11,1.00,2,0.55,0.0,5,4,5,2469,2165,706,62,189,50.9,29.1,0,1.3,8.7,160.0,432
2019/05/26 23:22,4,3,1,0.09,1.10,2,0.49,0.0,3,3,6,2497,2181,705,65,190,51.5,29.1,0,1.3,8.7,200.0,445
2019/05/26 23:24,4,3,1,0.08,1.10,1,0.49,0.0,3,3,5,2542,2196,692,69,193,52.1,29.1,0,1.3,8.8,270.0,257
2019/05/26 23:26,4,3,1,0.06,1.10,1,0.49,0.0,4,3,5,2531,2194,671,70,196,52.5,29.1,0,1.3,8.7,250.0,564
2019/05/26 23:28,3,2,1,0.04,1.10,0,0.29,0.0,7,3,5,2556,2210,647,72,199,52.9,29.2,0,1.3,8.8,300.0,488
